CAPE
0 0 0 0 0 0 0 0 0 0 1 131 160 145 205 92 87 8 17 317 816 1286 1528 1682 1620 1643 1514 1410 1781 1908 1904 1900 1691 1827 1970 1982 1885 1833 1879 1848 1628 1315 896 1007 793 600 512 340 72
0 0 0 0 0 0 0 0 0 39 296 276 281 178 163 160 398 355 427 562 920 1303 1507 1488 1411 1485 1487 1370 1793 2046 2013 1864 1981 1997 1890 1866 1692 1719 1675 1547 1576 1375 999 983 883 732 621 242 10
0 0 0 0 0 0 0 0 0 21 226 431 451 221 162 229 337 309 316 542 1040 1295 1375 1360 1241 1315 1378 1336 1764 2080 2049 1820 1886 1935 1863 1686 1575 1465 1481 1668 1482 1381 928 867 808 654 340 25 9
0 0 0 0 0 0 0 0 0 0 26 645 722 678 512 181 309 264 403 480 764 1108 1214 1034 1059 1157 1246 1371 1761 1963 1883 1658 1651 1746 1856 1761 1452 1318 1550 1536 1571 1457 821 501 361 201 44 1 7
0 0 0 0 0 0 0 0 0 26 420 652 905 1213 735 325 238 314 222 256 466 846 1037 917 924 1056 1211 1453 1714 1646 1566 1463 1496 1616 1715 1846 1708 1550 1373 1238 1401 1520 1250 635 370 185 74 41 48
0 0 0 0 0 0 0 0 0 0 580 868 1057 1035 598 213 290 217 59 137 331 651 928 947 914 1006 1109 1333 1346 1262 1218 1237 1280 1362 1466 1658 1532 1297 1205 1087 1095 1201 1048 752 453 199 117 85 91
0 0 0 0 0 0 0 0 0 2 304 561 1045 779 175 193 108 151 29 172 154 422 703 877 958 996 1015 1017 911 893 910 1015 1087 1154 1250 1230 1034 962 1008 933 935 858 880 626 416 245 173 134 122
0 0 0 0 0 0 0 0 0 0 0 693 846 667 291 207 182 146 192 96 35 169 412 570 711 841 700 606 571 566 666 813 888 958 994 850 706 682 685 590 695 769 748 664 517 315 165 104 80
0 0 0 0 0 0 0 0 0 0 114 429 437 774 423 175 578 445 365 98 2 1 116 280 490 449 280 242 363 406 531 628 688 787 733 508 292 355 401 282 343 524 503 479 392 238 126 59 31
0 0 0 0 0 0 0 0 0 0 405 887 916 561 258 415 804 657 527 222 50 0 0 75 203 216 100 229 224 163 360 382 458 519 405 156 67 83 169 136 158 362 333 325 272 206 127 75 1
0 0 0 0 0 0 0 0 0 0 2 687 958 513 268 621 974 992 786 449 208 17 0 1 34 57 34 95 15 23 97 120 211 260 174 39 14 14 22 0 1 38 199 104 118 63 50 47 23
0 0 0 0 0 0 0 0 0 0 0 0 954 744 425 629 785 1257 1297 978 616 261 54 45 6 46 35 11 8 10 47 27 38 67 46 9 1 17 67 0 0 13 1 16 7 0 0 16 21
0 0 0 0 0 0 0 0 0 0 0 0 718 957 699 622 742 802 1224 1215 943 698 430 216 99 109 119 12 1 13 32 50 29 36 48 39 13 188 142 3 0 1 0 0 0 41 94 117 413
0 0 0 0 0 0 0 0 0 0 0 3 782 861 895 844 841 844 849 1244 1160 1153 901 513 348 268 248 94 0 22 43 56 88 102 250 294 348 304 249 168 60 6 154 123 290 496 452 242 115
0 0 0 0 0 0 0 0 0 0 0 0 377 664 836 947 957 959 962 1040 1267 1249 1257 952 749 565 587 545 132 129 224 263 335 401 493 657 686 621 478 578 521 353 394 463 497 171 27 0 0
0 0 0 0 0 0 0 0 0 0 0 0 0 249 572 602 835 972 981 998 1233 1260 1197 1263 1258 937 859 922 656 565 604 627 586 524 655 625 714 417 114 319 371 313 355 338 0 0 0 0 0
0 0 0 0 0 0 0 0 0 0 0 0 0 0 40 101 282 552 712 836 1038 1187 1168 1237 1319 1297 1137 1090 1021 945 789 748 694 362 366 541 466 273 236 203 202 154 25 0 0 0 0 0 0
0 0 0 0 0 0 0 0 0 0 0 0 0 0 0 0 22 25 21 376 685 883 1133 1221 1199 1422 1289 896 850 620 592 730 361 351 380 366 294 355 255 169 75 0 0 0 0 0 0 0 0
0 0 0 0 0 0 0 0 0 0 0 0 0 0 0 0 0 0 0 0 604 620 999 1114 1051 1352 1198 698 809 807 691 375 413 445 381 321 389 282 121 0 0 0 0 0 0 0 0 0 0
0 0 0 0 0 0 0 0 0 0 0 0 0 0 0 0 0 0 0 0 398 613 855 995 977 1093 992 1038 922 876 708 344 452 373 406 376 328 75 0 0 0 0 0 0 0 0 0 0 0
0 0 0 0 0 0 0 0 0 0 0 0 0 0 0 0 0 0 0 0 130 610 847 928 885 692 820 748 768 182 132 124 145 223 194 9 8 0 0 0 0 0 0 0 0 0 0 0 0
0 0 0 0 0 0 0 0 0 0 0 0 0 0 0 0 0 0 0 0 119 698 853 913 838 573 524 412 570 525 689 700 696 427 28 0 0 0 0 0 0 0 0 0 0 0 0 0 0
0 0 0 0 0 0 0 0 0 0 0 0 0 0 0 0 0 0 0 0 132 742 928 895 796 639 586 437 564 563 567 613 177 11 0 0 0 0 0 0 0 0 0 0 0 0 0 0 0
0 0 0 0 0 0 0 0 0 0 0 0 0 0 0 0 0 0 0 0 0 633 924 930 798 751 725 536 618 631 546 379 8 0 0 0 0 0 0 0 0 0 0 0 0 0 0 0 0
0 0 0 0 0 0 0 0 0 0 0 0 0 0 0 0 0 0 0 0 0 381 1014 945 847 900 775 660 690 711 567 88 1 0 0 0 0 0 0 0 0 0 0 0 0 0 0 0 0
0 0 0 0 0 0 0 0 0 0 0 0 0 0 0 0 0 0 0 0 0 188 1229 1147 1016 1009 890 784 701 650 366 0 0 0 0 0 0 0 0 0 0 0 0 0 0 0 0 0 0
0 0 0 0 0 0 0 0 0 0 0 0 0 0 0 0 0 0 0 0 0 8 1222 1384 1276 1245 986 867 689 423 30 0 0 0 0 0 0 0 0 0 0 0 0 0 0 0 0 0 0
1 0 0 0 4 0 0 0 0 0 0 0 0 0 0 0 0 0 0 0 0 0 721 1525 1468 1336 1079 907 609 105 0 0 0 0 0 0 0 0 0 0 0 0 0 0 0 0 0 0 0
0 3 21 10 9 13 0 0 0 0 0 0 0 0 0 0 0 0 0 0 0 12 465 1325 1504 1446 1142 941 302 34 0 0 0 0 0 0 0 0 0 0 0 0 0 0 0 0 0 0 0
0 0 29 38 6 45 72 1 0 0 0 0 0 0 0 0 0 0 0 0 5 269 744 1173 1311 1337 1092 771 271 40 0 0 0 0 0 0 0 0 0 0 0 0 0 0 0 0 0 0 0
CIN
0 0 0 0 0 0 0 0 0 0 -56 -247 -261 -286 -247 -363 -273 -93 -120 -607 -580 -383 -296 -244 -281 -268 -252 -242 -140 -114 -102 -78 -91 -57 -42 -41 -42 -41 -32 -39 -54 -87 -136 -105 -129 -158 -181 -241 -412
0 0 0 0 0 0 0 0 0 -88 -186 -270 -254 -286 -314 -284 -505 -638 -567 -614 -507 -375 -302 -300 -322 -286 -260 -254 -144 -84 -85 -95 -52 -42 -51 -53 -72 -64 -65 -74 -61 -81 -126 -114 -113 -130 -152 -307 -575
0 0 0 0 0 0 0 0 0 -122 -230 -181 -247 -329 -338 -369 -541 -585 -670 -634 -413 -348 -329 -338 -350 -318 -285 -250 -146 -83 -74 -99 -70 -49 -52 -68 -82 -98 -93 -61 -79 -82 -144 -146 -142 -166 -280 -588 -642
0 0 0 0 0 0 0 0 0 0 -121 -187 -215 -256 -304 -406 -445 -612 -651 -611 -479 -381 -346 -406 -386 -336 -291 -241 -128 -93 -107 -129 -108 -65 -37 -40 -78 -104 -67 -70 -73 -76 -160 -211 -285 -420 -603 -443 -721
0 0 0 0 0 0 0 0 0 -99 -147 -167 -161 -167 -273 -410 -624 -625 -659 -622 -583 -443 -393 -417 -402 -332 -273 -211 -152 -149 -170 -183 -159 -98 -66 -36 -36 -46 -79 -103 -85 -74 -100 -191 -295 -451 -613 -673 -649
0 0 0 0 0 0 0 0 0 0 -141 -185 -151 -188 -293 -546 -554 -592 -644 -627 -598 -525 -426 -396 -376 -316 -264 -199 -221 -242 -239 -232 -204 -163 -103 -68 -85 -99 -91 -120 -121 -100 -111 -157 -250 -428 -511 -561 -562
0 0 0 0 0 0 0 0 0 -8 -119 -117 -141 -212 -398 -456 -560 -570 -617 -596 -665 -581 -477 -391 -336 -293 -256 -253 -288 -320 -323 -279 -243 -211 -170 -145 -168 -174 -155 -153 -139 -148 -141 -192 -287 -405 -462 -491 -498
0 0 0 0 0 0 0 0 0 0 0 -150 -170 -210 -278 -390 -521 -631 -630 -660 -752 -681 -564 -476 -399 -321 -332 -357 -371 -377 -355 -324 -294 -251 -221 -235 -245 -232 -222 -240 -197 -164 -157 -175 -232 -331 -437 -503 -551
0 0 0 0 0 0 0 0 0 0 -44 -151 -142 -186 -259 -427 -506 -560 -608 -699 -191 -251 -675 -579 -457 -434 -499 -500 -437 -404 -351 -323 -311 -284 -287 -335 -401 -353 -314 -374 -341 -245 -241 -244 -279 -358 -451 -539 -586
0 0 0 0 0 0 0 0 0 0 -112 -133 -164 -218 -296 -445 -450 -489 -533 -617 -695 0 0 -672 -567 -534 -573 -477 -481 -504 -398 -375 -353 -341 -373 -476 -563 -554 -464 -468 -450 -306 -319 -326 -336 -362 -419 -482 -209
0 0 0 0 0 0 0 0 0 0 -8 -115 -163 -211 -282 -344 -360 -388 -442 -538 -605 -703 0 -108 -660 -608 -606 -533 -429 -559 -502 -469 -413 -374 -439 -566 -320 -465 -623 0 -47 -568 -389 -473 -435 -492 -522 -502 -533
0 0 0 0 0 0 0 0 0 0 0 0 -190 -191 -268 -267 -315 -322 -348 -415 -481 -551 -631 -642 -649 -602 -600 -633 -600 -580 -512 -527 -507 -466 -494 -633 -623 -587 -501 -58 0 -602 -566 -594 -274 0 -10 -527 -515
0 0 0 0 0 0 0 0 0 0 0 0 -192 -178 -205 -246 -258 -315 -334 -363 -387 -413 -463 -539 -573 -545 -532 -625 -127 -577 -538 -505 -508 -475 -473 -510 -578 -367 -372 -456 0 -305 0 0 0 -466 -369 -320 -144
0 0 0 0 0 0 0 0 0 0 0 -56 -169 -194 -208 -216 -254 -284 -336 -331 -362 -331 -362 -443 -475 -478 -469 -532 0 -563 -513 -481 -450 -422 -338 -314 -279 -275 -309 -340 -410 -315 -315 -348 -223 -123 -105 -188 -278
0 0 0 0 0 0 0 0 0 0 0 0 -168 -181 -204 -223 -219 -255 -327 -339 -336 -363 -382 -419 -445 -441 -400 -410 -502 -472 -416 -369 -324 -296 -265 -209 -177 -143 -187 -172 -188 -226 -189 -138 -120 -214 -381 0 0
0 0 0 0 0 0 0 0 0 0 0 0 0 -176 -178 -206 -215 -230 -273 -339 -375 -348 -389 -371 -364 -431 -405 -375 -396 -382 -324 -290 -273 -270 -211 -205 -171 -183 -271 -186 -165 -185 -162 -170 0 0 0 0 0
0 0 0 0 0 0 0 0 0 0 0 0 0 0 -107 -244 -249 -241 -259 -279 -359 -410 -405 -393 -364 -370 -367 -348 -334 -314 -302 -262 -245 -319 -303 -211 -206 -237 -214 -210 -207 -233 -154 0 0 0 0 0 0
0 0 0 0 0 0 0 0 0 0 0 0 0 0 0 0 -361 -373 -182 -271 -280 -380 -440 -406 -388 -327 -309 -352 -335 -363 -369 -308 -353 -316 -285 -236 -223 -199 -218 -228 -280 0 0 0 0 0 0 0 0
0 0 0 0 0 0 0 0 0 0 0 0 0 0 0 0 0 0 0 0 -260 -354 -407 -412 -389 -344 -307 -381 -329 -298 -352 -394 -341 -312 -279 -247 -199 -213 -266 -2 0 0 0 0 0 0 0 0 0
0 0 0 0 0 0 0 0 0 0 0 0 0 0 0 0 0 0 0 0 -310 -369 -446 -463 -444 -397 -382 -331 -334 -258 -257 -346 -301 -287 -263 -231 -222 -321 0 0 0 0 0 0 0 0 0 0 0
0 0 0 0 0 0 0 0 0 0 0 0 0 0 0 0 0 0 0 0 -406 -361 -463 -501 -524 -553 -451 -391 -319 -424 -389 -356 -321 -302 -314 -315 -176 0 0 0 0 0 0 0 0 0 0 0 0
0 0 0 0 0 0 0 0 0 0 0 0 0 0 0 0 0 0 0 0 -570 -384 -496 -518 -558 -594 -538 -500 -383 -385 -339 -283 -271 -274 -96 0 0 0 0 0 0 0 0 0 0 0 0 0 0
0 0 0 0 0 0 0 0 0 0 0 0 0 0 0 0 0 0 0 0 -673 -437 -494 -533 -552 -566 -550 -528 -436 -383 -328 -287 -382 -129 0 0 0 0 0 0 0 0 0 0 0 0 0 0 0
0 0 0 0 0 0 0 0 0 0 0 0 0 0 0 0 0 0 0 0 0 -520 -518 -528 -536 -555 -513 -501 -433 -398 -358 -361 -398 0 0 0 0 0 0 0 0 0 0 0 0 0 0 0 0
0 0 0 0 0 0 0 0 0 0 0 0 0 0 0 0 0 0 0 0 0 -598 -510 -529 -527 -516 -494 -460 -397 -385 -380 -512 -86 0 0 0 0 0 0 0 0 0 0 0 0 0 0 0 0
0 0 0 0 0 0 0 0 0 0 0 0 0 0 0 0 0 0 0 0 0 -648 -488 -509 -525 -473 -470 -445 -388 -356 -378 0 0 0 0 0 0 0 0 0 0 0 0 0 0 0 0 0 0
0 0 0 0 0 0 0 0 0 0 0 0 0 0 0 0 0 0 0 0 0 -249 -479 -522 -506 -455 -473 -460 -390 -367 -562 0 0 0 0 0 0 0 0 0 0 0 0 0 0 0 0 0 0
-17 -1 0 0 -3 0 0 0 0 0 0 0 0 0 0 0 0 0 0 0 0 0 -585 -508 -507 -486 -508 -439 -418 -497 0 0 0 0 0 0 0 0 0 0 0 0 0 0 0 0 0 0 0
0 -50 -16 -10 -19 -10 0 0 0 0 0 0 0 0 0 0 0 0 0 0 0 -303 -555 -543 -469 -428 -410 -397 -468 -522 0 0 0 0 0 0 0 0 0 0 0 0 0 0 0 0 0 0 0
0 0 -37 -3 -9 -1 -1 -4 0 0 0 0 0 0 0 0 0 0 0 0 -149 -684 -527 -560 -498 -448 -422 -404 -470 -518 0 0 0 0 0 0 0 0 0 0 0 0 0 0 0 0 0 0 0
Wind_Speed
5 4 2 4 5 6 4 7 4 4 3 5 9 7 7 6 5 5 1 9 17 15 16 13 18 18 18 16 15 15 16 16 15 13 12 12 12 11 11 12 12 11 11 11 11 10 10 9 9
3 3 5 2 6 3 7 5 7 8 6 14 12 9 6 3 4 8 9 11 16 15 14 13 17 18 18 17 15 15 15 16 14 13 12 11 11 11 11 11 10 10 11 10 9 8 8 8 8
3 2 4 4 4 5 5 4 5 11 15 7 8 5 5 5 7 9 11 16 13 13 12 13 17 17 18 16 15 15 14 14 13 12 12 11 11 11 11 9 10 9 10 9 8 7 6 6 7
3 5 5 4 4 7 5 10 8 10 6 5 12 8 5 1 11 10 18 18 13 11 11 14 15 16 17 17 15 15 14 14 13 12 11 10 10 10 8 8 8 9 8 7 7 6 4 4 5
4 4 3 1 6 6 9 11 6 2 4 6 5 5 4 4 15 21 19 16 15 10 10 12 13 15 16 17 17 15 14 14 14 12 11 10 8 7 7 7 7 8 8 6 6 4 2 3 5
3 3 3 3 6 8 8 8 7 3 6 7 8 7 3 13 20 15 16 14 12 13 11 11 13 13 14 15 16 15 14 14 14 13 11 11 10 8 6 6 6 7 5 5 4 3 1 2 5
5 4 3 4 7 8 5 6 5 8 4 4 9 6 4 10 13 15 13 12 10 11 11 9 9 10 11 12 13 14 14 14 13 13 12 11 10 9 8 7 6 5 6 5 4 3 2 3 5
4 4 4 3 4 8 7 5 2 6 3 9 10 7 7 11 14 12 12 10 10 9 10 9 8 8 7 8 12 12 12 13 14 12 11 10 10 9 9 8 7 7 6 5 5 4 3 4 5
3 3 2 4 3 9 8 6 6 3 9 3 1 9 16 19 19 16 12 7 7 6 8 9 10 8 7 7 9 11 12 11 11 11 11 8 4 6 7 7 8 8 7 7 6 5 4 5 7
4 4 7 7 2 6 7 5 6 5 4 6 5 8 22 21 21 20 17 15 12 12 8 9 10 10 9 8 7 6 7 5 5 6 6 4 5 5 6 6 8 9 8 8 7 6 5 5 4
4 7 7 14 6 6 3 8 5 3 1 6 10 19 20 20 18 17 16 19 19 14 11 10 10 10 10 8 6 4 3 4 3 5 5 5 4 4 4 3 3 3 7 3 4 3 3 4 4
4 7 5 8 4 3 4 2 7 2 4 4 16 22 16 16 17 16 15 14 14 15 14 13 11 11 9 6 7 6 5 5 4 5 6 4 3 4 4 4 4 4 3 4 4 3 4 4 5
6 6 6 8 9 6 3 5 5 8 8 5 12 18 19 17 16 14 15 14 13 14 13 16 14 13 11 10 7 7 7 7 7 6 6 5 5 5 4 4 4 3 3 4 3 3 4 4 4
6 7 9 5 10 5 2 4 3 7 6 8 17 18 18 20 21 15 15 17 18 16 17 17 17 15 13 10 11 9 8 8 7 7 7 9 6 4 4 4 4 4 4 4 4 4 2 1 2
4 8 6 4 5 5 3 7 7 10 7 6 13 16 19 21 18 20 22 19 21 20 21 21 21 19 17 15 12 10 9 9 8 8 9 9 8 6 6 5 5 4 4 5 3 3 2 4 4
4 0 5 5 2 6 7 11 15 11 6 12 9 14 18 19 23 23 20 21 21 17 20 19 16 21 20 17 13 10 10 9 9 8 8 7 7 8 6 5 4 5 4 4 4 4 4 4 3
3 3 5 9 4 4 5 7 12 13 8 11 9 9 17 19 21 22 22 22 20 22 21 21 21 21 20 15 12 12 11 9 8 7 6 7 7 7 6 5 5 5 4 4 4 2 3 2 2
7 6 6 10 3 5 13 17 12 14 7 14 17 11 9 18 25 23 20 23 20 21 22 22 18 18 17 11 10 8 8 8 6 7 5 8 7 9 6 5 5 5 5 4 3 4 4 3 1
4 6 10 4 5 6 11 12 11 14 6 12 14 14 10 11 17 17 14 20 23 19 18 21 20 19 15 12 13 11 12 8 6 6 9 10 9 9 8 5 6 5 7 5 6 4 4 4 2
9 13 22 15 7 8 17 20 15 10 10 9 14 14 11 7 8 9 12 13 21 23 22 19 20 19 17 14 12 8 9 4 6 6 9 10 10 9 8 8 6 7 6 6 5 5 3 2 3
14 17 18 16 8 13 12 21 17 11 6 9 8 11 10 12 13 10 9 11 21 21 20 21 22 22 19 17 10 5 5 4 5 8 8 6 8 8 8 8 9 7 6 5 5 5 6 4 2
17 15 18 17 9 12 7 17 20 8 10 8 11 8 10 10 8 11 10 8 16 23 21 23 21 22 19 19 16 17 16 13 10 10 6 7 7 7 8 9 10 9 5 7 5 4 4 5 4
15 15 16 16 14 9 11 4 23 5 7 8 9 11 11 11 10 13 12 11 19 20 22 22 20 20 19 21 20 16 16 11 6 7 12 9 6 7 10 9 10 9 6 7 8 6 6 3 4
12 13 13 9 8 11 22 8 27 18 15 9 7 9 10 11 11 12 11 11 11 17 19 19 21 22 20 21 21 22 21 16 13 12 11 9 7 5 7 8 10 9 9 8 7 7 8 6 5
4 6 6 7 10 18 15 10 25 3 9 17 19 17 14 14 10 10 11 9 10 17 21 20 22 22 21 22 21 22 21 20 19 17 13 13 9 7 8 8 9 8 9 8 8 7 7 6 5
11 5 5 12 7 14 15 13 23 19 8 6 13 17 14 14 15 11 12 14 12 18 22 24 24 22 22 23 21 19 17 12 12 15 13 11 11 10 9 8 9 10 10 8 7 5 5 6 5
1 9 13 12 13 11 10 9 14 26 27 24 21 16 17 19 12 11 13 14 10 17 23 27 24 22 23 24 18 18 16 17 14 16 15 12 11 9 10 10 10 9 9 9 8 6 6 6 5
7 3 3 3 11 19 12 11 15 20 10 15 24 22 14 10 13 15 14 15 14 18 21 22 23 26 26 23 18 14 16 16 14 15 18 18 15 16 13 11 11 10 9 8 8 6 4 7 4
6 2 3 5 3 4 7 8 13 27 19 21 21 22 23 9 14 15 20 16 10 12 15 18 19 21 20 20 17 18 16 15 14 15 16 16 16 17 17 15 12 11 9 8 7 7 6 7 6
14 15 3 3 4 4 4 9 13 19 19 14 15 15 13 14 16 13 19 17 8 12 14 17 17 19 19 18 17 16 14 13 15 15 15 16 17 17 17 17 14 12 10 8 9 9 7 8 6
Wind_Direction
295 206 124 45 54 64 266 259 245 278 316 229 132 139 170 105 158 198 304 145 127 144 156 161 145 139 139 140 138 135 130 127 126 119 113 111 110 110 112 108 107 108 107 106 103 99 89 70 61
278 54 39 74 85 53 275 241 240 130 158 114 96 107 42 69 67 120 111 146 144 145 152 159 144 141 142 143 142 138 134 133 132 126 120 116 117 118 117 114 110 112 114 110 102 94 75 48 37
292 79 84 93 124 179 233 298 277 149 168 151 116 92 108 117 111 146 136 135 145 144 152 153 144 144 144 146 143 140 137 135 132 127 124 127 129 128 125 125 122 119 116 112 106 93 74 45 22
21 10 19 74 271 264 255 276 254 154 144 100 119 67 49 41 156 145 136 139 142 146 155 142 145 146 147 145 143 142 139 136 131 128 131 136 134 133 130 133 137 129 120 115 110 102 87 51 16
34 61 33 326 253 253 263 242 250 124 87 115 131 114 80 34 116 133 141 146 146 147 140 146 144 149 152 150 145 144 143 140 139 140 142 140 138 137 138 136 136 134 132 130 124 117 92 30 356
12 105 47 285 271 263 281 250 195 129 145 137 89 102 96 130 131 145 145 148 147 142 137 148 150 154 154 150 146 145 148 147 148 149 153 151 150 152 150 146 137 139 137 137 138 133 56 334 334
135 89 225 240 263 309 276 253 107 111 173 106 124 88 111 142 140 145 142 137 135 136 136 145 153 156 149 148 149 150 152 152 154 155 159 161 163 163 161 158 155 161 167 162 171 184 225 297 327
121 91 303 251 316 284 308 320 133 77 59 128 153 143 174 169 146 123 126 125 133 141 144 148 147 148 148 156 154 155 158 159 159 161 165 165 167 171 175 179 182 188 188 190 208 224 248 285 301
127 57 272 273 324 295 309 349 356 8 95 15 305 147 155 147 129 125 125 117 128 144 157 154 152 154 151 151 163 158 163 166 165 166 170 165 164 180 187 193 197 198 203 211 225 240 264 289 300
110 136 233 215 241 280 317 8 311 68 84 22 42 104 145 144 146 149 158 161 165 166 174 169 159 160 156 162 159 159 166 170 178 175 175 167 172 186 194 207 206 206 210 226 236 241 256 278 281
216 211 229 268 247 265 302 333 324 105 115 198 159 149 158 157 157 161 168 171 174 170 167 175 167 164 165 164 160 164 161 163 175 188 184 178 182 197 202 207 209 203 213 222 240 258 245 253 271
301 242 222 266 239 274 280 249 330 328 144 189 166 161 157 165 168 169 171 171 162 172 175 171 175 170 174 157 169 169 169 177 183 195 191 178 197 204 210 207 197 194 191 206 230 233 233 229 253
217 264 304 303 305 261 261 258 232 286 295 183 157 163 169 173 177 179 173 169 168 176 180 179 173 179 179 169 177 176 182 183 193 197 192 181 202 209 190 193 185 206 182 193 216 232 240 239 225
287 296 283 294 294 267 258 263 347 268 283 115 161 176 176 181 185 179 175 179 180 179 182 180 181 183 182 181 181 184 186 188 193 201 200 196 202 203 187 179 193 186 188 201 215 192 178 353 356
294 320 323 267 254 281 63 317 227 247 277 251 180 185 186 193 187 189 192 187 184 191 181 186 184 180 185 186 184 186 187 188 197 204 202 198 198 190 178 168 169 184 161 171 180 128 110 80 52
332 16 320 286 301 262 119 264 271 264 232 254 217 195 195 200 197 200 198 197 192 183 186 187 189 187 186 188 184 186 188 188 196 200 200 193 185 173 171 161 169 165 151 139 119 119 90 87 86
340 242 261 298 228 264 162 257 261 262 199 249 246 221 201 209 211 206 204 200 193 190 186 188 189 191 192 187 179 182 185 190 199 197 193 180 176 172 165 162 169 153 139 125 126 103 131 125 76
199 228 229 236 283 250 274 266 264 273 250 241 248 234 229 209 209 211 202 204 196 194 189 188 185 188 186 179 173 173 173 187 189 191 182 170 176 173 161 156 147 137 124 122 135 109 57 106 83
267 276 253 273 253 263 260 278 270 272 265 254 247 243 238 212 214 209 203 196 199 197 189 188 185 183 175 174 177 186 190 181 180 173 169 171 177 168 165 145 145 141 138 153 149 114 110 36 18
227 241 260 278 268 262 279 280 267 254 260 218 248 250 227 219 246 225 224 169 195 192 192 189 189 182 185 183 184 188 187 162 169 169 172 175 176 165 162 151 147 139 129 137 131 122 116 101 11
228 230 252 252 268 268 280 279 276 265 243 274 246 247 245 222 224 223 217 180 192 190 189 190 189 186 187 184 171 125 111 105 151 182 176 177 167 167 155 151 149 148 141 142 138 136 136 139 30
239 234 250 255 257 255 160 271 273 266 257 239 263 239 250 241 234 236 222 182 191 194 191 193 187 185 185 179 180 181 183 182 194 182 159 159 163 173 162 152 152 151 140 135 136 140 133 119 140
251 257 258 260 254 267 250 245 267 199 252 260 242 257 252 250 250 250 228 209 192 191 192 194 187 187 182 181 184 183 185 187 162 162 159 160 152 159 159 154 146 144 141 137 136 135 129 112 125
313 304 262 267 249 245 256 234 274 257 255 258 262 253 247 260 245 242 233 232 199 193 189 186 185 190 187 183 185 187 182 173 163 168 167 166 156 150 157 155 147 144 142 144 147 139 133 132 127
240 286 281 259 254 255 255 240 260 267 249 249 257 265 267 273 262 259 258 241 206 195 188 185 188 190 185 187 189 188 185 176 174 169 166 161 159 160 170 156 154 151 146 144 140 136 135 146 145
246 229 204 241 247 261 255 236 250 267 266 294 311 277 270 272 272 257 249 255 210 199 189 185 190 188 185 186 189 188 182 179 177 172 166 167 168 161 166 152 153 150 146 144 137 130 133 134 133
352 238 263 274 260 261 251 280 265 266 268 272 276 293 276 271 287 282 273 269 225 204 194 190 187 189 186 188 181 179 175 175 178 172 165 160 156 156 159 157 152 151 146 143 138 137 134 130 135
213 188 297 279 272 260 241 232 250 265 291 262 263 265 275 286 301 301 283 266 250 218 201 189 186 184 186 185 180 172 178 179 174 166 173 170 162 158 159 155 154 151 147 140 129 118 125 121 133
335 239 228 247 219 245 270 258 236 259 265 267 265 267 271 285 294 298 296 274 236 212 193 185 183 183 183 184 171 176 179 178 175 176 173 174 167 158 158 158 153 148 139 136 125 114 136 128 121
260 281 8 234 268 255 258 271 295 304 307 308 308 303 297 289 300 307 306 277 190 181 178 178 179 182 183 180 174 178 165 167 170 179 179 176 171 166 160 152 148 144 140 136 126 130 138 126 117